Hourly Data Report for October 14, 2014

All times are specified in Local Standard Time (LST). Add 1 hour to adjust for Daylight Saving Time where and when it is observed.

BATHURST A
NEW BRUNSWICK

47°37'47.000" N
65°44'20.000" W
58.80 m
8100505
71574
ZBF

Download Data

Hourly Data (October 2014)
Hourly Data Report for October 14, 2014
Temp Definition
°C
Dew Point Temp Definition
°C
Rel Hum Definition
%
Wind Dir Definition
10's deg

Wind Spd Definition
km/h
Visibility Definition
km
Stn Press Definition
kPa
Hmdx Definition


Wind Chill Definition


Weather Definition


TIME
00:00 Legend Double Dagger 1.4 -0.5 87 25 6 24.1 101.35     LegendNANA
01:00 Legend Double Dagger 0.0 -1.0 93 22 4 24.1 101.33   -1 LegendNANA
02:00 Legend Double Dagger -0.2 -1.5 91 21 7 24.1 101.32   -3 Clear
03:00 Legend Double Dagger -0.4 -1.5 92 21 7 24.1 101.32   -3 LegendNANA
04:00 Legend Double Dagger -0.6 -1.5 94 25 3 24.1 101.32   -2 LegendNANA
05:00 Legend Double Dagger -0.6 -1.5 94 18 4 24.1 101.34   -2 Clear
06:00 Legend Double Dagger -1.0 -1.8 94 36 3 24.1 101.36   -2 LegendNANA
07:00 Legend Double Dagger -0.8 -1.4 96 0 1 24.1 101.40   -1 LegendNANA
08:00 Legend Double Dagger 1.8 0.5 91 36 1 24.1 101.39     Cloudy
09:00 Legend Double Dagger 6.1 2.7 79 36 1 24.1 101.41     LegendNANA
10:00 Legend Double Dagger 10.4 4.1 65 8 4 24.1 101.37     LegendNANA
11:00 Legend Double Dagger 13.4 5.4 58 13 4 24.1 101.29     Mainly Clear
12:00 Legend Double Dagger 17.1 7.3 52 11 8 24.1 101.20     LegendNANA
13:00 Legend Double Dagger 16.8 7.5 54 6 11 24.1 101.12     LegendNANA
14:00 Legend Double Dagger 17.4 8.1 54 6 10 24.1 101.04     Cloudy
15:00 Legend Double Dagger 16.5 8.0 57 6 11 24.1 100.95     LegendNANA
16:00 Legend Double Dagger 15.4 8.2 62 6 7 24.1 100.90     LegendNANA
17:00 Legend Double Dagger 13.3 7.6 68 8 4 24.1 100.82     Mainly Clear
18:00 Legend Double Dagger 17.9 11.8 67 20 15 24.1 100.82     LegendNANA
19:00 Legend Double Dagger 17.3 12.1 71 21 12 24.1 100.84     LegendNANA
20:00 Legend Double Dagger 16.5 12.1 75 21 9 24.1 100.80     Mostly Cloudy
21:00 Legend Double Dagger 14.9 12.3 84 20 8 24.1 100.77     LegendNANA
22:00 Legend Double Dagger 14.2 12.1 87 19 13 24.1 100.73     LegendNANA
23:00 Legend Double Dagger 13.8 11.9 88 19 8 24.1 100.61     Mainly Clear

Notes on Data Quality.

Legend

  • E = Estimated
  • M = Missing
  • NA = Not Available
  • ‡ = Partner data that is not subject to review by the National Climate Archives
Date modified: